| time (UTC) | temp F | wind direction | speed MPH | gust MPH | rain 1hr in | rain 24hr in | rain mn in | humidity % | barometer mb |
| 20260906093041 | 91 | 360 | 3.0 | 12.0 | 0.00 | 0.00 | 0.00 | 30 | 1016.7 |
| 20260906092527 | 92 | 34 | 4.0 | 14.0 | 0.00 | 0.00 | 0.00 | 29 | 1016.6 |
| 20260906092031 | 91 | 311 | 7.0 | 14.0 | 0.00 | 0.00 | 0.00 | 30 | 1016.6 |
| 20260906091548 | 91 | 48 | 6.0 | 12.0 | 0.00 | 0.00 | 0.00 | 30 | 1016.7 |
| 20260906091027 | 91 | 17 | 7.0 | 12.0 | 0.00 | 0.00 | 0.00 | 30 | 1016.6 |
| 20260906090530 | 90 | 11 | 6.0 | 13.0 | 0.00 | 0.00 | 0.00 | 30 | 1016.7 |
| 20260906090046 | 91 | 34 | 8.0 | 13.0 | 0.00 | 0.00 | 0.00 | 30 | 1016.7 |
| 20260906085526 | 91 | 338 | 6.0 | 13.0 | 0.00 | 0.00 | 0.00 | 31 | 1016.8 |
| 20260906085027 | 90 | 44 | 7.0 | 13.0 | 0.00 | 0.00 | 0.00 | 31 | 1016.8 |
| 20260906084544 | 90 | 31 | 5.0 | 13.0 | 0.00 | 0.00 | 0.00 | 31 | 1016.7 |
| 20260906084027 | 90 | 355 | 7.0 | 13.0 | 0.00 | 0.00 | 0.00 | 31 | 1016.8 |
| 20260906083528 | 90 | 336 | 6.0 | 13.0 | 0.00 | 0.00 | 0.00 | 31 | 1016.7 |
| 20260906083052 | 90 | 46 | 8.0 | 13.0 | 0.00 | 0.00 | 0.00 | 31 | 1016.7 |
| 20260906082527 | 90 | 82 | 6.0 | 14.0 | 0.00 | 0.00 | 0.00 | 31 | 1016.7 |
| 20260906082027 | 90 | 343 | 8.0 | 14.0 | 0.00 | 0.00 | 0.00 | 31 | 1016.7 |
| 20260906081553 | 89 | 47 | 5.0 | 11.0 | 0.00 | 0.00 | 0.00 | 32 | 1016.7 |
| 20260906081027 | 89 | 68 | 4.0 | 13.0 | 0.00 | 0.00 | 0.00 | 31 | 1016.7 |
| 20260906080528 | 89 | 350 | 5.0 | 13.0 | 0.00 | 0.00 | 0.00 | 32 | 1016.7 |
| 20260906080050 | 89 | 5 | 4.0 | 11.0 | 0.00 | 0.00 | 0.00 | 32 | 1016.8 |
| 20260906075527 | 88 | 355 | 6.0 | 11.0 | 0.00 | 0.00 | 0.00 | 32 | 1016.7 |
| 20260906075028 | 88 | 355 | 0.0 | 4.0 | 0.00 | 0.00 | 0.00 | 33 | 1016.8 |
| 20260906074556 | 87 | 314 | 2.0 | 4.0 | 0.00 | 0.00 | 0.00 | 33 | 1016.8 |
| 20260906074026 | 88 | 238 | 0.0 | 4.0 | 0.00 | 0.00 | 0.00 | 33 | 1016.7 |
| 20260906073526 | 87 | 0 | 1.0 | 7.0 | 0.00 | 0.00 | 0.00 | 34 | 1016.8 |
| 20260906073051 | 87 | 252 | 3.0 | 7.0 | 0.00 | 0.00 | 0.00 | 34 | 1016.7 |
| 20260906072526 | 86 | 0 | 0.0 | 5.0 | 0.00 | 0.00 | 0.00 | 34 | 1016.7 |
| 20260906072027 | 86 | 0 | 1.0 | 5.0 | 0.00 | 0.00 | 0.00 | 34 | 1016.7 |
| 20260906071544 | 85 | 196 | 1.0 | 5.0 | 0.00 | 0.00 | 0.00 | 35 | 1016.6 |
| 20260906071027 | 85 | 292 | 2.0 | 5.0 | 0.00 | 0.00 | 0.00 | 35 | 1016.6 |
| 20260906070533 | 85 | 273 | 1.0 | 5.0 | 0.00 | 0.00 | 0.00 | 36 | 1016.5 |
| 20260906070043 | 85 | 258 | 1.0 | 5.0 | 0.00 | 0.00 | 0.00 | 35 | 1016.5 |
| 20260906065526 | 85 | 240 | 0.0 | 6.0 | 0.00 | 0.00 | 0.00 | 36 | 1016.4 |
| 20260906065027 | 84 | 286 | 2.0 | 6.0 | 0.00 | 0.00 | 0.00 | 36 | 1016.4 |
| 20260906064546 | 84 | 256 | 0.0 | 3.0 | 0.00 | 0.00 | 0.00 | 36 | 1016.3 |
| 20260906064026 | 84 | 0 | 0.0 | 3.0 | 0.00 | 0.00 | 0.00 | 36 | 1016.2 |
| 20260906063526 | 84 | 0 | 0.0 | 5.0 | 0.00 | 0.00 | 0.00 | 37 | 1016.3 |
| 20260906063047 | 83 | 221 | 3.0 | 5.0 | 0.00 | 0.00 | 0.00 | 37 | 1016.1 |
| 20260906062526 | 83 | 261 | 1.0 | 4.0 | 0.00 | 0.00 | 0.00 | 37 | 1016.1 |
| 20260906062026 | 83 | 271 | 2.0 | 4.0 | 0.00 | 0.00 | 0.00 | 38 | 1016.1 |
| 20260906061544 | 83 | 259 | 1.0 | 4.0 | 0.00 | 0.00 | 0.00 | 38 | 1016.0 |
| 20260906061027 | 82 | 267 | 0.0 | 4.0 | 0.00 | 0.00 | 0.00 | 38 | 1015.9 |
| 20260906060526 | 82 | 267 | 1.0 | 4.0 | 0.00 | 0.00 | 0.00 | 38 | 1015.9 |
| 20260906060040 | 83 | 264 | 2.0 | 4.0 | 0.00 | 0.00 | 0.00 | 37 | 1015.9 |
| 20260906055526 | 83 | 249 | 1.0 | 4.0 | 0.00 | 0.00 | 0.00 | 38 | 1015.8 |
| 20260906055026 | 82 | 180 | 2.0 | 4.0 | 0.00 | 0.00 | 0.00 | 37 | 1015.8 |
| 20260906054545 | 82 | 0 | 1.0 | 3.0 | 0.00 | 0.00 | 0.00 | 40 | 1015.7 |
| 20260906054027 | 81 | 0 | 1.0 | 3.0 | 0.00 | 0.00 | 0.00 | 40 | 1015.7 |
| 20260906053527 | 81 | 120 | 1.0 | 4.0 | 0.00 | 0.00 | 0.00 | 40 | 1015.8 |
| 20260906053040 | 81 | 90 | 0.0 | 4.0 | 0.00 | 0.00 | 0.00 | 39 | 1015.7 |
| 20260906052526 | 80 | 0 | 1.0 | 4.0 | 0.00 | 0.00 | 0.00 | 39 | 1015.8 |
| 20260906052027 | 79 | 0 | 0.0 | 5.0 | 0.00 | 0.00 | 0.00 | 41 | 1015.9 |
| 20260906051540 | 79 | 0 | 1.0 | 5.0 | 0.00 | 0.00 | 0.00 | 40 | 1015.9 |
| 20260906051026 | 79 | 0 | 0.0 | 3.0 | 0.00 | 0.00 | 0.00 | 40 | 1015.8 |
| 20260906050526 | 79 | 0 | 1.0 | 4.0 | 0.00 | 0.00 | 0.00 | 41 | 1015.8 |
| 20260906050041 | 79 | 0 | 0.0 | 4.0 | 0.00 | 0.00 | 0.00 | 40 | 1015.8 |
| 20260906045529 | 78 | 119 | 1.0 | 4.0 | 0.00 | 0.00 | 0.00 | 41 | 1015.7 |
| 20260906045023 | 78 | 360 | 1.0 | 3.0 | 0.00 | 0.00 | 0.00 | 41 | 1015.7 |
| 20260906044546 | 78 | 0 | 0.0 | 3.0 | 0.00 | 0.00 | 0.00 | 42 | 1015.7 |
| 20260906044028 | 78 | 360 | 1.0 | 3.0 | 0.00 | 0.00 | 0.00 | 40 | 1015.6 |
| 20260906043527 | 78 | 360 | 1.0 | 4.0 | 0.00 | 0.00 | 0.00 | 41 | 1015.5 |
| 20260906043047 | 78 | 360 | 2.0 | 4.0 | 0.00 | 0.00 | 0.00 | 41 | 1015.5 |
| 20260906042527 | 78 | 111 | 1.0 | 4.0 | 0.00 | 0.00 | 0.00 | 41 | 1015.4 |
| 20260906042027 | 77 | 110 | 1.0 | 4.0 | 0.00 | 0.00 | 0.00 | 41 | 1015.4 |
| 20260906041541 | 76 | 115 | 1.0 | 3.0 | 0.00 | 0.00 | 0.00 | 42 | 1015.3 |
| 20260906041031 | 76 | 116 | 1.0 | 4.0 | 0.00 | 0.00 | 0.00 | 41 | 1015.2 |
| 20260906040528 | 76 | 116 | 1.0 | 4.0 | 0.00 | 0.00 | 0.00 | 41 | 1015.1 |
| 20260906040100 | 75 | 119 | 0.0 | 2.0 | 0.00 | 0.00 | 0.00 | 42 | 1015.1 |
| 20260906035525 | 75 | 0 | 1.0 | 3.0 | 0.00 | 0.00 | 0.00 | 42 | 1015.2 |
| 20260906035027 | 76 | 0 | 1.0 | 3.0 | 0.00 | 0.00 | 0.00 | 41 | 1015.2 |
| 20260906034553 | 75 | 0 | 0.0 | 0.0 | 0.00 | 0.00 | 0.00 | 43 | 1015.1 |
| 20260906034026 | 75 | 0 | 0.0 | 0.0 | 0.00 | 0.00 | 0.00 | 43 | 1015.1 |
| 20260906033526 | 75 | 0 | 0.0 | 0.0 | 0.00 | 0.00 | 0.00 | 42 | 1015.1 |
| 20260906033044 | 75 | 0 | 0.0 | 0.0 | 0.00 | 0.00 | 0.00 | 42 | 1015.1 |
| 20260906032526 | 75 | 0 | 0.0 | 3.0 | 0.00 | 0.00 | 0.00 | 41 | 1015.0 |
| 20260906032026 | 76 | 0 | 0.0 | 3.0 | 0.00 | 0.00 | 0.00 | 41 | 1015.0 |
| 20260906031549 | 76 | 117 | 0.0 | 3.0 | 0.00 | 0.00 | 0.00 | 40 | 1015.0 |
| 20260906031026 | 76 | 117 | 0.0 | 3.0 | 0.00 | 0.00 | 0.00 | 41 | 1015.1 |
| 20260906030526 | 74 | 0 | 0.0 | 0.0 | 0.00 | 0.00 | 0.00 | 43 | 1014.9 |
| 20260906030046 | 75 | 0 | 0.0 | 0.0 | 0.00 | 0.00 | 0.00 | 44 | 1014.9 |
| 20260906025525 | 74 | 0 | 0.0 | 0.0 | 0.00 | 0.00 | 0.00 | 44 | 1014.9 |
| 20260906025026 | 74 | 0 | 0.0 | 0.0 | 0.00 | 0.00 | 0.00 | 44 | 1014.9 |
| 20260906024543 | 74 | 0 | 0.0 | 0.0 | 0.00 | 0.00 | 0.00 | 44 | 1014.7 |
| 20260906024029 | 74 | 0 | 0.0 | 1.0 | 0.00 | 0.00 | 0.00 | 44 | 1014.6 |
| 20260906023527 | 75 | 0 | 0.0 | 4.0 | 0.00 | 0.00 | 0.00 | 43 | 1014.6 |
| 20260906023049 | 74 | 0 | 2.0 | 4.0 | 0.00 | 0.00 | 0.00 | 43 | 1014.7 |
| 20260906022526 | 74 | 81 | 2.0 | 3.0 | 0.00 | 0.00 | 0.00 | 43 | 1014.6 |
| 20260906022026 | 75 | 51 | 0.0 | 3.0 | 0.00 | 0.00 | 0.00 | 43 | 1014.7 |
| 20260906021602 | 74 | 0 | 0.0 | 0.0 | 0.00 | 0.00 | 0.00 | 43 | 1014.8 |
| 20260906021026 | 75 | 0 | 0.0 | 0.0 | 0.00 | 0.00 | 0.00 | 43 | 1014.8 |
| 20260906020526 | 75 | 0 | 0.0 | 0.0 | 0.00 | 0.00 | 0.00 | 41 | 1014.8 |
| 20260906020055 | 75 | 0 | 0.0 | 3.0 | 0.00 | 0.00 | 0.00 | 43 | 1014.8 |
| 20260906015527 | 76 | 0 | 0.0 | 4.0 | 0.00 | 0.00 | 0.00 | 41 | 1014.7 |
| 20260906015026 | 75 | 0 | 2.0 | 4.0 | 0.00 | 0.00 | 0.00 | 41 | 1014.8 |
| 20260906014552 | 74 | 12 | 3.0 | 4.0 | 0.00 | 0.00 | 0.00 | 44 | 1014.8 |
| 20260906014029 | 75 | 0 | 0.0 | 4.0 | 0.00 | 0.00 | 0.00 | 42 | 1014.8 |
| 20260906013525 | 76 | 0 | 1.0 | 4.0 | 0.00 | 0.00 | 0.00 | 41 | 1014.7 |
| 20260906013045 | 75 | 0 | 0.0 | 4.0 | 0.00 | 0.00 | 0.00 | 40 | 1014.9 |
| 20260906012526 | 75 | 169 | 2.0 | 4.0 | 0.00 | 0.00 | 0.00 | 42 | 1014.7 |
| 20260906012023 | 74 | 169 | 1.0 | 4.0 | 0.00 | 0.00 | 0.00 | 41 | 1014.9 |
| 20260906011542 | 74 | 170 | 2.0 | 4.0 | 0.00 | 0.00 | 0.00 | 42 | 1015.0 |
| 20260906011030 | 75 | 167 | 1.0 | 3.0 | 0.00 | 0.00 | 0.00 | 43 | 1014.9 |
| 20260906010526 | 75 | 165 | 0.0 | 4.0 | 0.00 | 0.00 | 0.00 | 41 | 1014.9 |
| 20260906010044 | 74 | 165 | 1.0 | 4.0 | 0.00 | 0.00 | 0.00 | 45 | 1015.0 |
| 20260906005526 | 74 | 165 | 1.0 | 4.0 | 0.00 | 0.00 | 0.00 | 44 | 1015.0 |
| 20260906005026 | 75 | 0 | 0.0 | 0.0 | 0.00 | 0.00 | 0.00 | 44 | 1014.9 |
| 20260906004554 | 75 | 0 | 0.0 | 2.0 | 0.00 | 0.00 | 0.00 | 44 | 1015.0 |
| 20260906004028 | 76 | 0 | 0.0 | 2.0 | 0.00 | 0.00 | 0.00 | 42 | 1014.9 |
| 20260906003524 | 75 | 165 | 1.0 | 2.0 | 0.00 | 0.00 | 0.00 | 44 | 1015.0 |
| 20260906003047 | 76 | 0 | 0.0 | 2.0 | 0.00 | 0.00 | 0.00 | 44 | 1015.0 |
| 20260906002527 | 76 | 0 | 1.0 | 3.0 | 0.00 | 0.00 | 0.00 | 42 | 1015.0 |
| 20260906002026 | 75 | 165 | 0.0 | 4.0 | 0.00 | 0.00 | 0.00 | 42 | 1014.9 |
| 20260906001544 | 75 | 165 | 2.0 | 4.0 | 0.00 | 0.00 | 0.00 | 45 | 1014.9 |
| 20260906001026 | 75 | 165 | 1.0 | 4.0 | 0.00 | 0.00 | 0.00 | 45 | 1015.0 |
| 20260906000526 | 75 | 165 | 1.0 | 4.0 | 0.00 | 0.00 | 0.00 | 45 | 1015.0 |
| 20260906000040 | 75 | 165 | 3.0 | 4.0 | 0.00 | 0.00 | 0.00 | 44 | 1015.1 |
| 20260905235527 | 76 | 166 | 0.0 | 2.0 | 0.00 | 0.00 | 0.00 | 43 | 1015.1 |
| 20260905235031 | 76 | 0 | 0.0 | 0.0 | 0.00 | 0.00 | 0.00 | 42 | 1015.1 |
| 20260905234549 | 77 | 0 | 0.0 | 2.0 | 0.00 | 0.00 | 0.00 | 40 | 1015.1 |
| 20260905234032 | 78 | 0 | 0.0 | 2.0 | 0.00 | 0.00 | 0.00 | 40 | 1015.2 |
| 20260905233527 | 77 | 0 | 0.0 | 4.0 | 0.00 | 0.00 | 0.00 | 40 | 1015.2 |
| 20260905233044 | 77 | 0 | 0.0 | 4.0 | 0.00 | 0.00 | 0.00 | 41 | 1015.3 |
| 20260905232529 | 76 | 167 | 3.0 | 4.0 | 0.00 | 0.00 | 0.00 | 41 | 1015.3 |
| 20260905232028 | 76 | 168 | 1.0 | 4.0 | 0.00 | 0.00 | 0.00 | 42 | 1015.4 |
| 20260905231542 | 76 | 168 | 1.0 | 4.0 | 0.00 | 0.00 | 0.00 | 42 | 1015.5 |
| 20260905231027 | 76 | 168 | 1.0 | 4.0 | 0.00 | 0.00 | 0.00 | 41 | 1015.5 |
| 20260905230529 | 76 | 0 | 1.0 | 4.0 | 0.00 | 0.00 | 0.00 | 41 | 1015.5 |
| 20260905230053 | 77 | 168 | 1.0 | 5.0 | 0.00 | 0.00 | 0.00 | 41 | 1015.6 |
| 20260905225527 | 76 | 168 | 2.0 | 5.0 | 0.00 | 0.00 | 0.00 | 41 | 1015.6 |
| 20260905225027 | 76 | 169 | 2.0 | 5.0 | 0.00 | 0.00 | 0.00 | 41 | 1015.6 |
| 20260905224549 | 76 | 178 | 1.0 | 4.0 | 0.00 | 0.00 | 0.00 | 41 | 1015.7 |
| 20260905224027 | 76 | 178 | 2.0 | 6.0 | 0.00 | 0.00 | 0.00 | 40 | 1015.7 |
| 20260905223526 | 76 | 180 | 2.0 | 6.0 | 0.00 | 0.00 | 0.00 | 40 | 1015.7 |
| 20260905223050 | 76 | 164 | 4.0 | 6.0 | 0.00 | 0.00 | 0.00 | 40 | 1015.7 |
| 20260905222526 | 77 | 181 | 2.0 | 8.0 | 0.00 | 0.00 | 0.00 | 38 | 1015.7 |
| 20260905222032 | 78 | 304 | 2.0 | 8.0 | 0.00 | 0.00 | 0.00 | 38 | 1015.6 |
| 20260905221548 | 78 | 0 | 0.0 | 3.0 | 0.00 | 0.00 | 0.00 | 39 | 1015.7 |
| 20260905221026 | 78 | 30 | 0.0 | 3.0 | 0.00 | 0.00 | 0.00 | 39 | 1015.6 |
| 20260905220526 | 78 | 35 | 0.0 | 3.0 | 0.00 | 0.00 | 0.00 | 38 | 1015.6 |
| 20260905220043 | 78 | 0 | 1.0 | 3.0 | 0.00 | 0.00 | 0.00 | 40 | 1015.6 |
| 20260905215526 | 78 | 69 | 2.0 | 3.0 | 0.00 | 0.00 | 0.00 | 39 | 1015.6 |
| 20260905215025 | 77 | 69 | 1.0 | 2.0 | 0.00 | 0.00 | 0.00 | 41 | 1015.6 |
| 20260905214547 | 77 | 0 | 1.0 | 2.0 | 0.00 | 0.00 | 0.00 | 40 | 1015.7 |
| 20260905214026 | 77 | 69 | 1.0 | 2.0 | 0.00 | 0.00 | 0.00 | 40 | 1015.6 |
| 20260905213526 | 78 | 0 | 0.0 | 0.0 | 0.00 | 0.00 | 0.00 | 39 | 1015.6 |
| 20260905213041 | 78 | 0 | 0.0 | 2.0 | 0.00 | 0.00 | 0.00 | 39 | 1015.7 |
| 20260905212527 | 79 | 0 | 0.0 | 2.0 | 0.00 | 0.00 | 0.00 | 38 | 1015.7 |
| 20260905212027 | 79 | 66 | 0.0 | 2.0 | 0.00 | 0.00 | 0.00 | 37 | 1015.7 |
| 20260905211548 | 79 | 67 | 1.0 | 3.0 | 0.00 | 0.00 | 0.00 | 37 | 1015.8 |
| 20260905211027 | 79 | 0 | 0.0 | 4.0 | 0.00 | 0.00 | 0.00 | 37 | 1015.8 |
| 20260905210527 | 79 | 0 | 1.0 | 4.0 | 0.00 | 0.00 | 0.00 | 37 | 1015.8 |
| 20260905210100 | 79 | 74 | 2.0 | 4.0 | 0.00 | 0.00 | 0.00 | 37 | 1015.8 |
| 20260905205526 | 79 | 75 | 0.0 | 4.0 | 0.00 | 0.00 | 0.00 | 36 | 1015.8 |
| 20260905205024 | 80 | 74 | 2.0 | 4.0 | 0.00 | 0.00 | 0.00 | 36 | 1015.8 |
| 20260905204542 | 80 | 360 | 0.0 | 2.0 | 0.00 | 0.00 | 0.00 | 36 | 1015.9 |
| 20260905204026 | 80 | 0 | 0.0 | 2.0 | 0.00 | 0.00 | 0.00 | 35 | 1015.7 |
| 20260905203528 | 80 | 360 | 0.0 | 6.0 | 0.00 | 0.00 | 0.00 | 36 | 1015.8 |
| 20260905203045 | 80 | 360 | 2.0 | 6.0 | 0.00 | 0.00 | 0.00 | 35 | 1015.6 |
| 20260905202526 | 80 | 360 | 0.0 | 2.0 | 0.00 | 0.00 | 0.00 | 35 | 1015.6 |
| 20260905202026 | 80 | 0 | 0.0 | 0.0 | 0.00 | 0.00 | 0.00 | 36 | 1015.7 |
| 20260905201540 | 80 | 0 | 0.0 | 6.0 | 0.00 | 0.00 | 0.00 | 35 | 1015.7 |
| 20260905201029 | 81 | 0 | 1.0 | 6.0 | 0.00 | 0.00 | 0.00 | 35 | 1015.7 |
| 20260905200525 | 81 | 360 | 2.0 | 5.0 | 0.00 | 0.00 | 0.00 | 34 | 1015.7 |
| 20260905200052 | 81 | 360 | 2.0 | 6.0 | 0.00 | 0.00 | 0.00 | 35 | 1015.7 |
| 20260905195529 | 81 | 360 | 2.0 | 10.0 | 0.00 | 0.00 | 0.00 | 35 | 1015.7 |
| 20260905195028 | 81 | 360 | 5.0 | 10.0 | 0.00 | 0.00 | 0.00 | 35 | 1015.7 |
| 20260905194548 | 80 | 360 | 5.0 | 8.0 | 0.00 | 0.00 | 0.00 | 36 | 1015.8 |
| 20260905194026 | 80 | 360 | 5.0 | 8.0 | 0.00 | 0.00 | 0.00 | 37 | 1015.7 |
| 20260905193526 | 80 | 360 | 4.0 | 5.0 | 0.00 | 0.00 | 0.00 | 37 | 1015.7 |
| 20260905193044 | 80 | 360 | 3.0 | 5.0 | 0.00 | 0.00 | 0.00 | 38 | 1015.7 |
| 20260905192526 | 80 | 360 | 3.0 | 5.0 | 0.00 | 0.00 | 0.00 | 38 | 1015.8 |
| 20260905192032 | 80 | 360 | 3.0 | 4.0 | 0.00 | 0.00 | 0.00 | 38 | 1015.8 |
| 20260905191542 | 80 | 360 | 2.0 | 4.0 | 0.00 | 0.00 | 0.00 | 38 | 1015.7 |
| 20260905191025 | 80 | 360 | 2.0 | 5.0 | 0.00 | 0.00 | 0.00 | 38 | 1015.8 |
| 20260905190527 | 81 | 360 | 2.0 | 5.0 | 0.00 | 0.00 | 0.00 | 38 | 1015.8 |
| 20260905190041 | 81 | 360 | 2.0 | 5.0 | 0.00 | 0.00 | 0.00 | 38 | 1015.9 |
| 20260905185527 | 81 | 360 | 2.0 | 5.0 | 0.00 | 0.00 | 0.00 | 38 | 1015.9 |
| 20260905185026 | 81 | 360 | 1.0 | 4.0 | 0.00 | 0.00 | 0.00 | 38 | 1015.8 |
| 20260905184553 | 81 | 360 | 1.0 | 2.0 | 0.00 | 0.00 | 0.00 | 38 | 1015.9 |
| 20260905184026 | 81 | 0 | 1.0 | 3.0 | 0.00 | 0.00 | 0.00 | 38 | 1015.9 |
| 20260905183525 | 81 | 360 | 0.0 | 3.0 | 0.00 | 0.00 | 0.00 | 38 | 1015.8 |
| 20260905183047 | 81 | 360 | 0.0 | 4.0 | 0.00 | 0.00 | 0.00 | 38 | 1015.7 |
| 20260905182525 | 81 | 0 | 1.0 | 5.0 | 0.00 | 0.00 | 0.00 | 37 | 1015.7 |
| 20260905182026 | 81 | 360 | 1.0 | 5.0 | 0.00 | 0.00 | 0.00 | 37 | 1015.5 |
| 20260905181549 | 81 | 360 | 3.0 | 5.0 | 0.00 | 0.00 | 0.00 | 37 | 1015.5 |
| 20260905181027 | 81 | 360 | 2.0 | 5.0 | 0.00 | 0.00 | 0.00 | 37 | 1015.5 |
| 20260905180527 | 81 | 360 | 2.0 | 6.0 | 0.00 | 0.00 | 0.00 | 37 | 1015.5 |
| 20260905180048 | 82 | 360 | 3.0 | 6.0 | 0.00 | 0.00 | 0.00 | 37 | 1015.4 |
| 20260905175526 | 82 | 360 | 1.0 | 5.0 | 0.00 | 0.00 | 0.00 | 37 | 1015.5 |
| 20260905175026 | 82 | 360 | 1.0 | 5.0 | 0.00 | 0.00 | 0.00 | 37 | 1015.5 |
| 20260905174545 | 82 | 360 | 2.0 | 5.0 | 0.00 | 0.00 | 0.00 | 37 | 1015.4 |
| 20260905174026 | 82 | 360 | 3.0 | 5.0 | 0.00 | 0.00 | 0.00 | 37 | 1015.5 |
| 20260905173525 | 82 | 360 | 3.0 | 5.0 | 0.00 | 0.00 | 0.00 | 37 | 1015.4 |
| 20260905173041 | 82 | 360 | 1.0 | 5.0 | 0.00 | 0.00 | 0.00 | 37 | 1015.4 |
| 20260905172524 | 82 | 360 | 2.0 | 6.0 | 0.00 | 0.00 | 0.00 | 37 | 1015.3 |
| 20260905172024 | 82 | 360 | 3.0 | 9.0 | 0.00 | 0.00 | 0.00 | 37 | 1015.2 |
| 20260905171559 | 82 | 360 | 4.0 | 11.0 | 0.00 | 0.00 | 0.00 | 37 | 1015.1 |
| 20260905171024 | 83 | 360 | 4.0 | 11.0 | 0.00 | 0.00 | 0.00 | 37 | 1015.1 |
| 20260905170524 | 83 | 360 | 6.0 | 11.0 | 0.00 | 0.00 | 0.00 | 37 | 1015.1 |
| 20260905170040 | 83 | 360 | 5.0 | 10.0 | 0.00 | 0.00 | 0.00 | 37 | 1015.2 |
| 20260905165524 | 83 | 360 | 4.0 | 10.0 | 0.00 | 0.00 | 0.00 | 37 | 1015.1 |
| 20260905165026 | 83 | 360 | 4.0 | 10.0 | 0.00 | 0.00 | 0.00 | 37 | 1015.2 |
| 20260905164541 | 84 | 360 | 4.0 | 10.0 | 0.00 | 0.00 | 0.00 | 37 | 1015.2 |
| 20260905164026 | 84 | 352 | 4.0 | 9.0 | 0.00 | 0.00 | 0.00 | 37 | 1015.2 |
| 20260905163525 | 84 | 30 | 2.0 | 8.0 | 0.00 | 0.00 | 0.00 | 37 | 1015.2 |
| 20260905163047 | 84 | 18 | 4.0 | 8.0 | 0.00 | 0.00 | 0.00 | 37 | 1015.2 |
| 20260905162526 | 84 | 13 | 3.0 | 9.0 | 0.00 | 0.00 | 0.00 | 36 | 1015.1 |
| 20260905162024 | 85 | 352 | 3.0 | 10.0 | 0.00 | 0.00 | 0.00 | 36 | 1015.2 |
| 20260905161543 | 85 | 36 | 4.0 | 12.0 | 0.00 | 0.00 | 0.00 | 35 | 1015.2 |
| 20260905161030 | 85 | 62 | 4.0 | 12.0 | 0.00 | 0.00 | 0.00 | 35 | 1015.1 |
| 20260905160531 | 85 | 5 | 7.0 | 13.0 | 0.00 | 0.00 | 0.00 | 34 | 1015.1 |
| 20260905160050 | 85 | 49 | 7.0 | 13.0 | 0.00 | 0.00 | 0.00 | 34 | 1015.1 |
| 20260905155528 | 86 | 335 | 6.0 | 12.0 | 0.00 | 0.00 | 0.00 | 35 | 1015.1 |
| 20260905155031 | 86 | 342 | 6.0 | 12.0 | 0.00 | 0.00 | 0.00 | 35 | 1015.1 |
| 20260905154554 | 86 | 333 | 4.0 | 13.0 | 0.00 | 0.00 | 0.00 | 35 | 1015.1 |
| 20260905154027 | 86 | 344 | 7.0 | 16.0 | 0.00 | 0.00 | 0.00 | 34 | 1015.2 |
| 20260905153527 | 86 | 337 | 9.0 | 16.0 | 0.00 | 0.00 | 0.00 | 34 | 1015.2 |
| 20260905153044 | 87 | 342 | 6.0 | 18.0 | 0.00 | 0.00 | 0.00 | 33 | 1015.2 |
| 20260905152528 | 87 | 309 | 11.0 | 18.0 | 0.00 | 0.00 | 0.00 | 32 | 1015.2 |
| 20260905152025 | 87 | 342 | 7.0 | 13.0 | 0.00 | 0.00 | 0.00 | 33 | 1015.1 |
| 20260905151543 | 87 | 360 | 6.0 | 17.0 | 0.00 | 0.00 | 0.00 | 35 | 1015.1 |
| 20260905151029 | 87 | 336 | 9.0 | 17.0 | 0.00 | 0.00 | 0.00 | 33 | 1015.1 |
| 20260905150527 | 87 | 32 | 10.0 | 17.0 | 0.00 | 0.00 | 0.00 | 33 | 1015.0 |
| 20260905150051 | 87 | 324 | 9.0 | 16.0 | 0.00 | 0.00 | 0.00 | 33 | 1015.1 |
| 20260905145526 | 87 | 45 | 8.0 | 17.0 | 0.00 | 0.00 | 0.00 | 34 | 1015.1 |
| 20260905145027 | 87 | 333 | 8.0 | 17.0 | 0.00 | 0.00 | 0.00 | 34 | 1015.0 |
| 20260905144552 | 87 | 61 | 5.0 | 13.0 | 0.00 | 0.00 | 0.00 | 35 | 1015.0 |
| 20260905144025 | 87 | 50 | 5.0 | 13.0 | 0.00 | 0.00 | 0.00 | 34 | 1015.0 |
| 20260905143525 | 87 | 13 | 6.0 | 13.0 | 0.00 | 0.00 | 0.00 | 35 | 1015.0 |
| 20260905143044 | 87 | 355 | 7.0 | 13.0 | 0.00 | 0.00 | 0.00 | 34 | 1015.0 |
| 20260905142527 | 87 | 13 | 4.0 | 14.0 | 0.00 | 0.00 | 0.00 | 35 | 1015.0 |
| 20260905142031 | 87 | 319 | 8.0 | 14.0 | 0.00 | 0.00 | 0.00 | 34 | 1015.0 |
| 20260905141547 | 87 | 36 | 5.0 | 15.0 | 0.00 | 0.00 | 0.00 | 34 | 1015.1 |
| 20260905141025 | 87 | 338 | 8.0 | 15.0 | 0.00 | 0.00 | 0.00 | 35 | 1015.0 |
| 20260905140524 | 87 | 11 | 6.0 | 16.0 | 0.00 | 0.00 | 0.00 | 35 | 1015.1 |
| 20260905140046 | 87 | 339 | 8.0 | 17.0 | 0.00 | 0.00 | 0.00 | 34 | 1015.0 |
| 20260905135528 | 87 | 39 | 8.0 | 17.0 | 0.00 | 0.00 | 0.00 | 34 | 1015.0 |
| 20260905135028 | 87 | 337 | 9.0 | 17.0 | 0.00 | 0.00 | 0.00 | 34 | 1015.0 |
| 20260905134549 | 87 | 14 | 7.0 | 18.0 | 0.00 | 0.00 | 0.00 | 35 | 1015.1 |
| 20260905134025 | 87 | 344 | 3.0 | 18.0 | 0.00 | 0.00 | 0.00 | 34 | 1015.1 |
| 20260905133526 | 87 | 5 | 9.0 | 18.0 | 0.00 | 0.00 | 0.00 | 34 | 1015.3 |
| 20260905133050 | 87 | 355 | 5.0 | 16.0 | 0.00 | 0.00 | 0.00 | 34 | 1015.3 |
| 20260905132525 | 87 | 350 | 6.0 | 15.0 | 0.00 | 0.00 | 0.00 | 34 | 1015.3 |
| 20260905132027 | 88 | 40 | 6.0 | 15.0 | 0.00 | 0.00 | 0.00 | 34 | 1015.4 |
| 20260905131546 | 88 | 338 | 6.0 | 14.0 | 0.00 | 0.00 | 0.00 | 34 | 1015.3 |
| 20260905131025 | 87 | 31 | 6.0 | 19.0 | 0.00 | 0.00 | 0.00 | 35 | 1015.3 |
| 20260905130523 | 87 | 32 | 9.0 | 19.0 | 0.00 | 0.00 | 0.00 | 35 | 1015.4 |
| 20260905130040 | 88 | 355 | 6.0 | 15.0 | 0.00 | 0.00 | 0.00 | 35 | 1015.4 |
| 20260905125528 | 87 | 5 | 6.0 | 18.0 | 0.00 | 0.00 | 0.00 | 35 | 1015.5 |
| 20260905125027 | 87 | 11 | 10.0 | 18.0 | 0.00 | 0.00 | 0.00 | 35 | 1015.5 |
| 20260905124548 | 87 | 355 | 9.0 | 17.0 | 0.00 | 0.00 | 0.00 | 34 | 1015.5 |
| 20260905124028 | 88 | 28 | 7.0 | 20.0 | 0.00 | 0.00 | 0.00 | 34 | 1015.6 |
| 20260905123525 | 87 | 346 | 10.0 | 20.0 | 0.00 | 0.00 | 0.00 | 34 | 1015.7 |
| 20260905123048 | 87 | 12 | 9.0 | 18.0 | 0.00 | 0.00 | 0.00 | 35 | 1015.6 |
| 20260905122530 | 87 | 5 | 10.0 | 18.0 | 0.00 | 0.00 | 0.00 | 35 | 1015.7 |
| 20260905122027 | 87 | 5 | 7.0 | 17.0 | 0.00 | 0.00 | 0.00 | 35 | 1015.7 |
| 20260905121544 | 87 | 345 | 9.0 | 17.0 | 0.00 | 0.00 | 0.00 | 35 | 1015.7 |
| 20260905121027 | 88 | 360 | 8.0 | 17.0 | 0.00 | 0.00 | 0.00 | 35 | 1015.8 |
| 20260905120527 | 87 | 342 | 7.0 | 15.0 | 0.00 | 0.00 | 0.00 | 36 | 1015.7 |
| 20260905120044 | 87 | 290 | 9.0 | 16.0 | 0.00 | 0.00 | 0.00 | 35 | 1015.9 |
| 20260905115527 | 87 | 24 | 11.0 | 18.0 | 0.00 | 0.00 | 0.00 | 35 | 1015.9 |
| 20260905115027 | 87 | 25 | 8.0 | 18.0 | 0.00 | 0.00 | 0.00 | 35 | 1015.9 |
| 20260905114605 | 87 | 326 | 10.0 | 20.0 | 0.00 | 0.00 | 0.00 | 35 | 1016.0 |
| 20260905114027 | 87 | 40 | 11.0 | 20.0 | 0.00 | 0.00 | 0.00 | 35 | 1015.9 |
| 20260905113531 | 87 | 42 | 9.0 | 20.0 | 0.00 | 0.00 | 0.00 | 35 | 1015.9 |
| 20260905113043 | 87 | 350 | 10.0 | 20.0 | 0.00 | 0.00 | 0.00 | 35 | 1016.0 |
| 20260905112527 | 87 | 27 | 11.0 | 19.0 | 0.00 | 0.00 | 0.00 | 35 | 1016.1 |
| 20260905112026 | 87 | 32 | 11.0 | 19.0 | 0.00 | 0.00 | 0.00 | 35 | 1016.0 |
| 20260905111542 | 87 | 344 | 10.0 | 22.0 | 0.00 | 0.00 | 0.00 | 36 | 1016.0 |
| 20260905111024 | 87 | 360 | 12.0 | 22.0 | 0.00 | 0.00 | 0.00 | 35 | 1016.1 |
| 20260905110526 | 87 | 331 | 11.0 | 20.0 | 0.00 | 0.00 | 0.00 | 36 | 1016.0 |
| 20260905110042 | 86 | 327 | 8.0 | 16.0 | 0.00 | 0.00 | 0.00 | 34 | 1016.0 |
| 20260905105527 | 86 | 335 | 7.0 | 18.0 | 0.00 | 0.00 | 0.00 | 36 | 1016.1 |
| 20260905105026 | 86 | 5 | 11.0 | 20.0 | 0.00 | 0.00 | 0.00 | 35 | 1016.2 |
| 20260905104551 | 86 | 360 | 8.0 | 20.0 | 0.00 | 0.00 | 0.00 | 35 | 1016.1 |
| 20260905104028 | 86 | 35 | 11.0 | 22.0 | 0.00 | 0.00 | 0.00 | 35 | 1016.0 |
| 20260905103527 | 86 | 44 | 13.0 | 22.0 | 0.00 | 0.00 | 0.00 | 34 | 1015.9 |
| 20260905103048 | 86 | 28 | 10.0 | 22.0 | 0.00 | 0.00 | 0.00 | 34 | 1016.0 |
| 20260905102526 | 86 | 54 | 10.0 | 22.0 | 0.00 | 0.00 | 0.00 | 34 | 1016.0 |
| 20260905102026 | 86 | 360 | 13.0 | 22.0 | 0.00 | 0.00 | 0.00 | 35 | 1015.9 |
| 20260905101543 | 86 | 49 | 12.0 | 22.0 | 0.00 | 0.00 | 0.00 | 36 | 1015.9 |
| 20260905101026 | 86 | 18 | 13.0 | 22.0 | 0.00 | 0.00 | 0.00 | 36 | 1015.9 |
| 20260905100526 | 85 | 28 | 12.0 | 21.0 | 0.00 | 0.00 | 0.00 | 36 | 1015.9 |
| 20260905100042 | 85 | 343 | 13.0 | 21.0 | 0.00 | 0.00 | 0.00 | 36 | 1016.1 |
| 20260905095526 | 85 | 38 | 13.0 | 23.0 | 0.00 | 0.00 | 0.00 | 37 | 1015.9 |
| 20260905095026 | 85 | 55 | 12.0 | 23.0 | 0.00 | 0.00 | 0.00 | 36 | 1016.0 |
| 20260905094558 | 85 | 13 | 12.0 | 22.0 | 0.00 | 0.00 | 0.00 | 36 | 1016.0 |
| 20260905094026 | 86 | 21 | 12.0 | 22.0 | 0.00 | 0.00 | 0.00 | 35 | 1015.9 |
| 20260905093527 | 86 | 51 | 12.0 | 22.0 | 0.00 | 0.00 | 0.00 | 36 | 1016.0 |